ECHOSTAR 7

导读 | 豆包AI

EchoStar 7(回声星7号)是由美国EchoStar公司运营、洛克希德·马丁公司制造的地球静止轨道通信卫星,于北京时间2002年2月21日从卡纳维拉尔角太空军基地发射升空。卫星发射质量约4172千克,设计寿命12年,原定点于西经119°,主要用于直播卫星电视服务。2014年退役后因燃料不足无法到达预定墓地轨道,运营方Dish因此被美国FCC处罚,成为太空碎片整治首例罚款案例。

Basic Information
目录编号:
27378
目录名称:
ECHOSTAR 7
国际标识:
2002-006A
轨道中心:
EARTH
卫星名称:
ECHOSTAR 7
卫星全名:
--
卫星状态:
在轨 (已飞行8787 天)
发射日期:
2002-02-21 UTC
国别 :
美国 (US)
星等 :
--
Orbit Information
数据来源 国际轨道数据 AOE轨道数据
星历时间 2026-03-13T20:36:07+0800
13小时前
查看轨道信息
2026-03-12T21:00:00+0800
1天前
查看轨道信息
半长轴 42284.378km 42284.152km
偏心率 0.0003904 0.0003963
轨道倾角 3.766° 3.764°
近地点辐角 264.660° 263.103°
升交点赤经 78.581° 78.596°
平近点角 149.611° 157.661°
近地点 35889.733km 35889.257km
远地点 35922.749km 35922.773km
周期 1442.214分钟 1442.202分钟
每日圈数 0.998465 0.998473
Detailed Information
使用方式:
暂无
2D Orbit Map
3D Orbit Map
Orbit Altitude Analysis Chart
Orbit Inclination Analysis Chart
Orbit Comprehensive Analysis Chart
View Comprehensive Chart